Stations météo

réclame
Mon MeteoGroup
Hawarden, Grande-Bretagne (3321): Température de l'air & dewpoint: 13.01.2020 20:00:00 - 19.01.2020 20:00:00 (GMT)Hawarden, Grande-Bretagne (3321): Température de l'air -20cm & Température de l'air -100cm: 13.01.2020 20:00:00 - 19.01.2020 20:00:00 (GMT)Hawarden, Grande-Bretagne (3321): Vitesse du vent & gusts: 13.01.2020 20:00:00 - 19.01.2020 20:00:00 (GMT)Hawarden, Grande-Bretagne (3321): Direction du vent: 13.01.2020 20:00:00 - 19.01.2020 20:00:00 (GMT)Hawarden, Grande-Bretagne (3321): reduced air pressure: 13.01.2020 20:00:00 - 19.01.2020 20:00:00 (GMT)Hawarden, Grande-Bretagne (3321): visibility: 13.01.2020 20:00:00 - 19.01.2020 20:00:00 (GMT)Hawarden, Grande-Bretagne (3321): Ensoleillement: 13.01.2020 20:00:00 - 19.01.2020 20:00:00 (GMT)Hawarden, Grande-Bretagne (3321): Quantités de précipitations: 13.01.2020 20:00:00 - 19.01.2020 20:00:00 (GMT)
Date & Time tt [°C] td [°C] tt -20cm [°C] tt -100cm [°C] ff [km/h] ff [knt] fx [km/h] fx [knt] dd ppp [hPa] vv [km] sd [min] rr [mm]
19.01.2020 20:00:00 1,8 1,2 - - 5 3 - - SE 1048,1 9 0 0,0
19.01.2020 19:00:00 2,5 2,0 - - 2 1 - - - 1048,3 8 0 0,0
19.01.2020 18:00:00 3,0 2,2 - - 2 1 - - - 1047,9 10 0 0,0
19.01.2020 17:00:00 2,8 1,4 - - 4 2 - - - 1047,5 10 6 0,0
19.01.2020 16:00:00 5,8 3,3 - - 4 2 - - SE 1047,0 10 6 0,0
19.01.2020 15:00:00 7,6 4,1 - - 4 2 - - - 1046,7 10 60 0,0
19.01.2020 14:00:00 7,3 4,3 - - 5 3 - - - 1046,4 10 60 0,0
19.01.2020 13:00:00 6,1 3,6 - - 5 3 - - SSE 1046,3 10 60 0,0
19.01.2020 12:00:00 4,2 3,1 - - 8 4 - - SSE 1046,1 10 42 0,0
19.01.2020 11:00:00 1,9 1,6 - - 4 2 - - E 1046,7 10 12 0,0
19.01.2020 10:00:00 0,5 0,1 - - 2 1 - - - 1046,2 10 60 0,0
19.01.2020 09:00:00 -2,1 -2,4 5,0 7,7 2 1 - - ESE 1045,2 10 0 0,0
19.01.2020 08:00:00 -1,7 -1,9 - - 4 2 - - S 1044,7 9 0 0,0
19.01.2020 07:00:00 -2,3 -2,7 - - 2 1 - - E 1043,4 11 0 0,0
19.01.2020 06:00:00 -1,5 -1,8 - - 2 1 - - W 1042,2 15 0 0,0
19.01.2020 05:00:00 -1,5 -1,9 - - 4 2 - - SSW 1041,7 17 0 0,0
19.01.2020 04:00:00 -0,3 -0,7 - - 8 4 - - SSE 1040,7 7 0 0,0
19.01.2020 03:00:00 3,0 2,4 - - 5 3 - - WNW 1040,4 19 0 0,0
19.01.2020 02:00:00 3,5 2,4 - - 4 2 - - NW 1040,0 18 0 0,0
19.01.2020 01:00:00 4,0 2,9 - - 8 4 - - NW 1039,0 22 0 0,0
19.01.2020 00:00:00 5,1 3,5 - - 9 5 - - WNW 1038,3 19 - 0,0
18.01.2020 23:00:00 4,7 3,1 - - 5 3 - - NW 1037,2 23 0 0,0
18.01.2020 22:00:00 4,5 2,3 - - 5 3 - - W 1036,5 26 0 0,0
18.01.2020 21:00:00 4,6 2,1 - - 4 2 - - W 1035,6 24 0 0,0
18.01.2020 20:00:00 4,9 2,2 - - 9 5 - - WNW 1034,7 28 0 0,0
18.01.2020 19:00:00 5,5 2,3 - - 13 7 - - NW 1034,1 10 0 0,0
18.01.2020 18:00:00 5,6 2,2 - - 8 4 - - WNW 1033,0 10 0 0,0
18.01.2020 17:00:00 5,7 2,0 - - 8 4 - - WNW 1032,0 10 0 0,0
18.01.2020 16:00:00 6,4 1,9 - - 9 5 - - WNW 1031,1 10 0 0,0
18.01.2020 15:00:00 7,0 1,7 - - 13 7 - - WNW 1030,3 10 24 0,0
18.01.2020 14:00:00 7,7 2,7 - - 11 6 - - WNW 1029,5 35 48 0,0
18.01.2020 13:00:00 7,4 2,3 - - 15 8 - - WNW 1028,9 10 42 0,0
18.01.2020 12:00:00 7,4 2,4 - - 13 7 - - NW 1028,3 10 60 0,0
18.01.2020 11:00:00 6,8 2,1 - - 11 6 - - WNW 1027,7 10 60 0,0
18.01.2020 10:00:00 5,8 1,7 - - 11 6 - - WNW 1026,9 10 48 0,0
18.01.2020 09:00:00 4,8 1,3 5,7 7,7 11 6 - - W 1025,9 10 0 0,0
18.01.2020 08:00:00 4,5 0,8 - - 16 9 - - W 1025,3 26 0 0,0
18.01.2020 07:00:00 4,5 0,9 - - 13 7 - - W 1024,4 22 0 0,0
18.01.2020 06:00:00 4,4 1,0 - - 11 6 - - WSW 1023,7 23 0 0,0
18.01.2020 05:00:00 4,8 1,3 - - 13 7 - - W 1022,6 22 0 0,0
18.01.2020 04:00:00 5,0 1,6 - - 11 6 - - W 1022,0 19 0 0,0
18.01.2020 03:00:00 5,1 1,4 - - 13 7 - - W 1021,5 22 0 0,0
18.01.2020 02:00:00 5,4 1,4 - - 16 9 - - W 1021,0 18 0 0,0
18.01.2020 01:00:00 5,6 1,5 - - 15 8 - - W 1020,1 22 0 0,0
18.01.2020 00:00:00 5,7 2,2 - - 15 8 - - W 1019,3 20 - 0,0
17.01.2020 23:00:00 5,5 2,3 - - 18 10 - - W 1018,2 26 0 0,0
17.01.2020 22:00:00 5,6 2,4 - - 15 8 - - W 1017,1 28 0 0,0
17.01.2020 21:00:00 4,5 1,7 - - 4 2 - - - 1016,1 10 0 0,2
17.01.2020 20:00:00 5,5 1,7 - - 16 9 - - WNW 1015,7 10 0 0,0
17.01.2020 19:00:00 4,2 1,4 - - 13 7 - - SW 1014,4 10 0 0,0
17.01.2020 18:00:00 5,1 1,4 - - 16 9 - - WSW 1013,7 10 0 0,0
17.01.2020 17:00:00 4,3 0,9 - - 11 6 - - S 1012,9 10 0 0,0
17.01.2020 16:00:00 6,9 1,3 - - 11 6 - - WSW 1011,8 10 48 0,0
17.01.2020 15:00:00 7,7 2,5 - - 13 7 - - W 1011,3 10 42 0,0
17.01.2020 14:00:00 6,5 2,9 - - 11 6 - - WSW 1010,9 30 0 0,0
17.01.2020 13:00:00 6,1 2,0 - - 13 7 - - WSW 1010,3 10 0 0,0
17.01.2020 12:00:00 5,3 1,9 - - 9 5 - - W 1009,6 10 0 0,0
17.01.2020 11:00:00 5,4 1,2 - - 22 12 - - W 1008,8 10 0 0,2
17.01.2020 10:00:00 5,3 3,1 - - 13 7 - - WNW 1007,7 10 0 0,2
17.01.2020 09:00:00 5,2 3,7 6,4 7,7 22 12 - - NW 1006,5 10 0 0,6
17.01.2020 08:00:00 6,5 5,0 - - 11 6 - - WNW 1005,3 10 0 0,0
17.01.2020 07:00:00 6,1 5,8 - - 8 4 - - S 1004,4 10 0 0,2
17.01.2020 06:00:00 6,3 5,8 - - 11 6 - - SSE 1004,2 10 0 0,8
17.01.2020 05:00:00 6,4 6,1 - - 9 5 - - SE 1004,2 10 0 0,2
17.01.2020 04:00:00 6,2 5,8 - - 5 3 - - WSW 1004,6 15 0 0,0
17.01.2020 03:00:00 6,4 5,6 - - 4 2 - - S 1004,8 17 0 0,4
17.01.2020 02:00:00 7,4 5,7 - - 18 10 - - S 1005,6 13 0 0,0
17.01.2020 01:00:00 7,1 4,9 - - 11 6 - - SE 1005,3 19 0 0,0
17.01.2020 00:00:00 7,3 4,9 - - 8 4 - - S 1005,2 23 - 0,0
16.01.2020 23:00:00 7,9 5,3 - - 13 7 - - SE 1005,3 26 0 0,0
16.01.2020 22:00:00 8,5 4,8 - - 9 5 - - S 1004,8 26 0 0,0
16.01.2020 21:00:00 9,6 5,3 - - 22 12 - - WSW 1004,0 10 0 0,0
16.01.2020 20:00:00 10,4 7,2 - - 24 13 - - SW 1002,6 10 0 0,0
16.01.2020 19:00:00 11,2 8,3 - - 28 15 - - SSW 1001,1 10 0 0,2
16.01.2020 18:00:00 10,1 9,6 - - 21 11 - - S 1000,1 11 0 0,4
16.01.2020 17:00:00 10,6 9,6 - - 29 16 - - S 1000,1 14 0 3,8
16.01.2020 16:00:00 10,7 9,2 - - 28 15 46 25 S 1000,3 16 0 0,2
16.01.2020 15:00:00 10,1 9,0 - - 35 19 57 31 S 1000,0 8 0 0,4
16.01.2020 14:00:00 9,3 8,0 - - 31 17 52 28 SSE 1000,7 9 0 0,2
16.01.2020 13:00:00 8,7 7,2 - - 35 19 57 31 SSE 1003,1 10 0 0,2
16.01.2020 12:00:00 8,4 5,8 - - 35 19 55 30 SSE 1004,4 10 0 0,0
16.01.2020 11:00:00 8,1 5,2 - - 26 14 - - SE 1007,1 10 0 0,0
16.01.2020 10:00:00 8,1 5,0 - - 26 14 - - SSE 1008,8 10 6 0,0
16.01.2020 09:00:00 7,4 5,4 5,7 7,7 29 16 - - SSE 1010,2 10 0 0,0
16.01.2020 08:00:00 6,9 5,2 - - 16 9 - - SSE 1010,7 10 0 0,0
16.01.2020 07:00:00 7,0 5,4 - - 9 5 - - ESE 1011,4 10 0 0,0
16.01.2020 06:00:00 6,5 5,0 - - 26 14 - - SSE 1011,9 10 0 0,0
16.01.2020 05:00:00 5,7 4,5 - - 15 8 - - SSE 1012,6 13 0 0,0
16.01.2020 04:00:00 4,9 3,9 - - 5 3 - - S 1013,6 18 0 0,0
16.01.2020 03:00:00 5,8 4,6 - - 13 7 - - SSE 1013,7 19 0 0,0
16.01.2020 02:00:00 6,0 3,9 - - 13 7 - - SSE 1013,8 30 0 0,0
16.01.2020 01:00:00 5,7 4,0 - - 13 7 - - S 1013,7 30 0 0,0
16.01.2020 00:00:00 6,5 3,3 - - 21 11 - - S 1013,3 30 - 0,0
15.01.2020 23:00:00 6,0 3,2 - - 15 8 - - SSE 1012,3 30 0 0,0
15.01.2020 22:00:00 5,0 2,2 - - 11 6 - - SSE 1011,5 40 0 0,0
15.01.2020 21:00:00 7,0 3,6 - - 22 12 46 25 SW 1010,8 10 0 0,2
15.01.2020 20:00:00 7,0 3,0 - - 15 8 - - S 1010,0 10 0 0,0
15.01.2020 19:00:00 7,2 3,0 - - 18 10 - - SSW 1009,0 10 0 0,0
15.01.2020 18:00:00 7,4 2,9 - - 24 13 52 28 SW 1007,8 10 0 0,0
15.01.2020 17:00:00 7,1 2,7 - - 21 11 52 28 SW 1006,8 10 0 0,0
15.01.2020 16:00:00 7,9 2,7 - - 18 10 46 25 SSW 1005,3 10 24 0,0
15.01.2020 15:00:00 8,2 2,8 - - 28 15 - - SW 1004,5 10 48 0,0
15.01.2020 14:00:00 8,8 3,4 - - 22 12 - - SW 1003,6 30 60 0,0
15.01.2020 13:00:00 9,4 2,7 - - 16 9 48 26 WSW 1002,4 10 60 0,0
15.01.2020 12:00:00 8,6 3,2 - - 26 14 - - SW 1001,6 10 54 0,0
15.01.2020 11:00:00 7,4 2,5 - - 24 13 - - SSW 1000,9 10 30 0,0
15.01.2020 10:00:00 6,4 2,1 - - 9 5 - - SSE 999,6 22 0 0,0
15.01.2020 09:00:00 6,0 2,6 6,2 7,7 9 5 - - SSE 998,8 10 0 0,0
15.01.2020 08:00:00 5,8 2,9 - - 15 8 - - S 997,5 10 0 0,0
15.01.2020 07:00:00 5,2 2,1 - - 13 7 - - S 997,2 10 0 0,0
15.01.2020 06:00:00 5,9 2,2 - - 15 8 - - SSW 996,6 35 0 0,0
15.01.2020 05:00:00 5,3 1,8 - - 15 8 - - SSE 995,5 30 0 0,0
15.01.2020 04:00:00 5,7 2,4 - - 16 9 - - S 995,0 29 0 0,0
15.01.2020 03:00:00 5,4 2,5 - - 9 5 - - S 994,6 21 0 0,0
15.01.2020 02:00:00 5,2 3,0 - - 5 3 - - SSW 993,9 30 0 0,0
15.01.2020 01:00:00 5,4 3,0 - - 8 4 - - S 993,4 40 0 0,0
15.01.2020 00:00:00 6,8 3,1 - - 16 9 - - WSW 993,0 24 - 0,2
14.01.2020 23:00:00 6,9 3,4 - - 8 4 - - SW 992,2 40 0 0,0
14.01.2020 22:00:00 6,3 3,1 - - 5 3 - - S 991,3 50 0 0,0
14.01.2020 21:00:00 7,9 3,6 - - 24 13 - - WSW 990,0 10 0 0,0
14.01.2020 20:00:00 8,1 4,2 - - 15 8 - - SW 988,7 10 0 0,0
14.01.2020 19:00:00 8,2 5,1 - - 21 11 - - WSW 987,0 10 0 0,0
14.01.2020 18:00:00 9,0 5,3 - - 24 13 46 25 WSW 985,6 10 0 0,0
14.01.2020 17:00:00 10,0 5,9 - - 34 18 70 38 WSW 983,6 10 0 0,0
14.01.2020 16:00:00 12,4 8,8 - - 52 28 72 39 SW 981,1 10 0 0,0
14.01.2020 15:00:00 9,7 9,1 - - 22 12 - - S 979,8 45 0 0,6
14.01.2020 14:00:00 7,7 7,3 - - 26 14 - - SSE 980,3 5 0 1,2
14.01.2020 13:00:00 6,7 6,2 - - 18 10 - - SE 983,0 5 0 1,8
14.01.2020 12:00:00 6,8 5,8 - - 22 12 - - SSE 987,0 9 0 0,4
14.01.2020 11:00:00 6,9 5,2 - - 18 10 - - SE 989,2 10 0 0,2
14.01.2020 10:00:00 6,2 4,7 - - 15 8 - - S 990,0 10 0 0,0
14.01.2020 09:00:00 5,0 4,2 6,2 7,7 9 5 - - E 990,5 10 0 0,0
14.01.2020 08:00:00 4,3 3,4 - - 13 7 - - ESE 991,5 9 0 0,2
14.01.2020 07:00:00 4,5 3,0 - - 11 6 - - SSE 991,8 9 0 1,0
14.01.2020 06:00:00 4,5 3,6 - - 16 9 - - SSE 992,1 11 0 0,2
14.01.2020 05:00:00 4,2 2,7 - - 13 7 - - SSE 992,0 22 0 0,0
14.01.2020 04:00:00 4,9 2,3 - - 13 7 54 29 S 992,1 29 0 0,0
14.01.2020 03:00:00 6,4 0,8 - - 28 15 59 32 SW 991,8 19 0 0,0
14.01.2020 02:00:00 6,7 2,3 - - 16 9 - - SW 991,0 20 0 0,0
14.01.2020 01:00:00 6,1 3,0 - - 26 14 - - SSW 990,9 16 0 0,2
14.01.2020 00:00:00 4,9 2,3 - - 26 14 63 34 SW 991,3 8 - 1,6
13.01.2020 23:00:00 8,0 2,6 - - 24 13 54 29 SW 990,0 18 0 0,0
13.01.2020 22:00:00 8,7 2,5 - - 31 17 52 28 SW 989,4 16 0 0,0
13.01.2020 21:00:00 7,9 3,9 - - 29 16 - - SSW 988,8 10 0 0,0
13.01.2020 20:00:00 8,1 3,3 - - 37 20 48 26 SW 988,2 10 0 0,0

tt = Température de l'air
td = dewpoint
tt -20cm = Température de l'air -20cm
tt -100cm = Température de l'air -100cm
ff = Vitesse du vent
fx = gusts
dd = Direction du vent
ppp = reduced air pressure
vv = visibility
sd = Ensoleillement
rr = Quantités de précipitations

stations d'obs. à proximité